EYESAT A (AO-27)

Last updated on Mon Sep 15 2025 00:03:09 GMT+0000 (Coordinated Universal Time)

1 22825U 93061C 25257.14090175 .00000069 00000+0 43634-4 0 9994 2 22825 98.7276 319.1369 0008345 182.5889 177.5252 14.30828248667528
UTC large
Height (km)
Speed (km/s)
/
Latitude / Longitude
Inclination (degrees)
Orbital Period (minutes)
Azimuth
Elevation
Range (km)
Doppler Factor

Next 0 passes for location: London (51.5072 / 0.1276)

Sorry there are no passes over London.